Wynau, Switzerland

11:04 AM CET on February 22, 2018 (GMT +0100)
Wynau

Weather History for 06643 - December, 2013

Change the Weather History Date:

Wednesday, December 18, 2013

  Actual Average Record
Temperature  
Mean Temperature 34 °F -  
Max Temperature 40 °F 36 °F - ()
Min Temperature 27 °F 26 °F - ()
Degree Days  
Heating Degree Days 32    
Moisture  
Dew Point 30 °F    
Average Humidity 94    
Maximum Humidity 100    
Minimum Humidity 74    
Precipitation  
Precipitation 0.00 in - - ()
Sea Level Pressure  
Sea Level Pressure 30.34 in    
Wind  
Wind Speed 2 mph ()    
Max Wind Speed 4 mph    
Max Gust Speed -    
T = Trace of Precipitation, MM = Missing Value Source: Averaged Metar Reports

Daily Weather History Graph

Daily Weather History Graph

Search for Another Location

Airport or City:

Trip Planner

Search our weather history database for the weather conditions in past years. The results will help you decide how hot, cold, wet, or windy it might be!

Date:

Astronomy

Dec. 18, 2013 Rise Set
Actual Time 8:11 AM CET 4:40 PM CET
Civil Twilight 7:35 AM CET 5:15 PM CET
Nautical Twilight 6:56 AM CET 5:54 PM CET
Astronomical Twilight 6:18 AM CET 6:32 PM CET
Moon 6:03 PM CET (12/18) 8:34 AM CET (12/18)
Length of Visible Light 9h 40m
Length of Day
8h 28m
Full, 99% of the Moon is Illuminated
Dec 18
Full
Dec 25
Last Quarter
Jan 1
New
Jan 8
First Quarter
Jan 16
Full

Hourly Weather History & Observations

Time (CET) Temp. Dew Point Humidity Pressure Visibility Wind Dir Wind Speed Gust Speed Precip Events Conditions
12:00 AM 28 °F 27 °F 93% 30.46 in - SSW 3.5 mph - -  
1:00 AM 27 °F 27 °F 99% 30.45 in - SW 3.5 mph - -  
2:00 AM 27 °F 26 °F 95% 30.45 in - SSW 2.3 mph - -  
3:00 AM 27 °F 27 °F 98% 30.45 in - SSW 3.5 mph - -  
4:00 AM 28 °F 26 °F 91% 30.45 in - SW 3.5 mph - -  
5:00 AM 28 °F 27 °F 93% 30.44 in - SW 3.5 mph - -  
6:00 AM 28 °F 27 °F 94% 30.44 in - SW 2.3 mph - -  
7:00 AM 28 °F 27 °F 96% 30.43 in - SW 1.2 mph - -  
8:00 AM 29 °F 28 °F 95% 30.42 in - NNE 1.2 mph - -  
9:00 AM 29 °F 28 °F 92% 30.42 in - SW 1.2 mph - -  
10:00 AM 31 °F 29 °F 91% 30.41 in - SW 2.3 mph - -  
11:00 AM 33 °F 32 °F 92% 30.39 in - SW 3.5 mph - -  
12:00 PM 35 °F 32 °F 85% 30.35 in - East 1.2 mph - -  
1:00 PM 36 °F 34 °F 87% 30.32 in - East 2.3 mph - -  
2:00 PM 40 °F 35 °F 74% 30.28 in - SSW 2.3 mph - -  
3:00 PM 38 °F 36 °F 89% 30.27 in - ESE 2.3 mph - -  
4:00 PM 35 °F 34 °F 96% 30.26 in - SE 2.3 mph - -  
5:00 PM 34 °F 33 °F 95% 30.25 in - South 1.2 mph - -  
6:00 PM 33 °F 33 °F 97% 30.25 in - West 1.2 mph - -  
7:00 PM 32 °F 32 °F 98% 30.25 in - WSW 1.2 mph - -  
8:00 PM 31 °F 31 °F 100% 30.24 in - WSW 2.3 mph - -  
9:00 PM 32 °F 32 °F 99% 30.20 in - WSW 1.2 mph - -  
10:00 PM 31 °F 31 °F 100% 30.18 in - South 2.3 mph - -  
11:00 PM 31 °F 31 °F 100% 30.17 in - NW 1.2 mph - -